User: anonymous   Login
Location: Plainartige
(45.6866°N, 1.7993°E)
Time: 21:55:33
(UTC+00:00)
Language:

ERS-2 - Orbit

View from above orbital plane
View from above orbital plane
View from above satellite
View from above satellite

Ground track
Ground track

The orbit data is extracted from the following two-line orbital elements,

1 23560U 95021A   21134.51825248  .00001030  00000-0  46412-4 0  9994
2 23560  98.5512 339.9413 0004543 114.5710 245.5998 15.23896317392523
Epoch (UTC): 14 May 2021 12:26:17
Eccentricity: 0.0004543
inclination: 98.5512°
perigee height: 491 km
apogee height: 497 km
right ascension of ascending node: 339.9413°
argument of perigee: 114.5710°
revolutions per day: 15.23896317
mean anomaly at epoch: 245.5998°
orbit number at epoch: 39252

The dashed part of the orbit path shows where the satellite is in the earth's shadow,  

DLR